Home   Weather   Worms   Past weeks

Flag for Germany Past Weather in Worms, Rhineland-Palatinate, Germany — Yesterday and Last 2 Weeks

Now
63 °F

Clear.


Feels Like: 63 °F
Forecast: 54 / 76 °F
Wind: No wind

Location: Wiesbaden Airport

Current Time: May 26, 2017 at 12:14:34 am

Latest Report: May 25, 2017 at 11:58 pm


Visibility: 5 mi

Pressure: 30.19 "Hg

Humidity: 68%

Dew Point: 52 °F

Location of WormsLocation

Past Weather in Worms — Graph

°F

Worms Temperature Yesterday

Maximum temperature yesterday: 74 °F (at 5:58 pm)
Minimum temperature yesterday: 55 °F (at 5:58 am)
Average temperature yesterday: 65 °F

High & Low Weather Summary for the Past Weeks

 TemperatureHumidityPressure
High82 °F (May 17, 4:58 pm)100% (May 12, 5:58 am)30.42 "Hg (May 12, 5:58 am)
Low43 °F (May 21, 4:58 am)32% (May 16, 4:58 pm)29.47 "Hg (May 11, 6:58 pm)
Average62 °F71%30.04 "Hg
* Reported May 10 10:58 pm — May 25 10:58 pm, Worms. Weather by CustomWeather, © 2017

Note: Actual official high and low records may vary slightly from our data, if they occured in-between our weather recording intervals... More about our weather records

Advertising

Worms Weather History for the Previous 24 Hours

Scroll right to see more
 ConditionsComfort  
Time TempWeatherWind HumidityBarometerVisibility
10:58 pm
Thu, May 25
65 °FClear.3 mph61%30.18 "Hg5 mi
9:58 pm66 °FClear.6 mph56%30.17 "HgN/A
8:58 pm70 °FSunny.7 mph50%30.16 "HgN/A
7:58 pm73 °FPartly sunny.7 mph41%30.14 "HgN/A
6:58 pm73 °FPartly sunny.5 mph47%30.14 "HgN/A
5:58 pm74 °FScattered clouds.6 mph48%30.16 "HgN/A
4:58 pm72 °FPartly sunny.6 mph53%30.16 "HgN/A
3:58 pm71 °FBroken clouds.3 mph52%30.17 "HgN/A
2:58 pm72 °FScattered clouds.3 mph51%30.18 "HgN/A
1:58 pm69 °FPassing clouds.3 mph52%30.20 "HgN/A
12:58 pm69 °FSunny.No wind53%30.21 "HgN/A
11:58 am66 °FSunny.5 mph60%30.22 "HgN/A
10:58 am66 °FPartly sunny.5 mph64%30.23 "HgN/A
9:58 am63 °FSunny.No wind73%30.23 "HgN/A
8:58 am63 °FSunny.3 mph73%30.22 "HgN/A
7:58 am60 °FSunny.8 mph79%30.21 "Hg6 mi
6:58 am57 °FSunny.6 mph88%30.21 "HgN/A
5:58 am55 °FFog.3 mph88%30.20 "Hg6 mi
4:58 am57 °FPassing clouds.5 mph88%30.19 "HgN/A
3:58 am56 °FPassing clouds.5 mph90%30.19 "HgN/A
2:58 am57 °FClear.No wind88%30.20 "HgN/A
1:58 am57 °FClear.No wind88%30.20 "HgN/A
12:58 am57 °FPassing clouds.3 mph89%30.21 "HgN/A
Weather by CustomWeather, © 2017

See weather overviewHow to use our weather pages